Time,TemperatureF,DewpointF,PressureIn,WindDirection,WindDirectionDegrees,WindSpeedMPH,WindSpeedGustMPH,Humidity,HourlyPrecipIn,Conditions,Clouds,dailyrainin,SolarRadiationWatts/m^2,SoftwareType,DateUTC
2013-03-15 00:12:00,58.0,49.0,30.05,South,177,3.0,4.0,72,-99.99,,,-99.99,0.000000,,2013-03-15 07:12:00,
2013-03-15 00:22:00,58.0,49.0,30.05,South,177,3.0,4.0,72,-99.99,,,-99.99,0.000000,,2013-03-15 07:22:00,
2013-03-15 00:32:00,58.0,49.0,30.05,South,177,3.0,4.0,72,-99.99,,,-99.99,0.000000,,2013-03-15 07:32:00,
2013-03-15 00:42:00,58.0,49.0,30.05,South,177,3.0,4.0,72,-99.99,,,-99.99,0.000000,,2013-03-15 07:42:00,
2013-03-15 00:52:00,58.0,49.0,30.05,South,177,3.0,4.0,72,-99.99,,,-99.99,0.000000,,2013-03-15 07:52:00,
2013-03-15 01:22:00,56.0,47.0,30.04,SSW,200,3.0,6.0,73,-99.99,,,-99.99,0.000000,,2013-03-15 08:22:00,
2013-03-15 01:32:00,56.0,47.0,30.04,SSW,200,3.0,6.0,73,-99.99,,,-99.99,0.000000,,2013-03-15 08:32:00,
2013-03-15 01:42:00,56.0,47.0,30.04,SSW,200,3.0,6.0,73,-99.99,,,-99.99,0.000000,,2013-03-15 08:42:00,
2013-03-15 01:52:00,56.0,47.0,30.04,SSW,200,3.0,6.0,73,-99.99,,,-99.99,0.000000,,2013-03-15 08:52:00,
2013-03-15 02:12:00,54.0,46.0,30.04,WSW,252,3.0,5.0,75,-99.99,,,-99.99,0.000000,,2013-03-15 09:12:00,
2013-03-15 02:22:00,54.0,46.0,30.04,WSW,252,3.0,5.0,75,-99.99,,,-99.99,0.000000,,2013-03-15 09:22:00,
2013-03-15 02:33:00,54.0,46.0,30.04,WSW,252,3.0,5.0,75,-99.99,,,-99.99,0.000000,,2013-03-15 09:33:00,
2013-03-15 02:42:00,54.0,46.0,30.04,WSW,252,3.0,5.0,75,-99.99,,,-99.99,0.000000,,2013-03-15 09:42:00,
2013-03-15 02:52:00,54.0,46.0,30.04,WSW,252,3.0,5.0,75,-99.99,,,-99.99,0.000000,,2013-03-15 09:52:00,
2013-03-15 03:12:00,52.0,45.0,30.04,SSW,203,2.0,6.0,77,-99.99,,,-99.99,0.000000,,2013-03-15 10:12:00,
2013-03-15 03:23:00,52.0,45.0,30.04,SSW,203,2.0,6.0,77,-99.99,,,-99.99,0.000000,,2013-03-15 10:23:00,
2013-03-15 03:32:00,52.0,45.0,30.04,SSW,203,2.0,6.0,77,-99.99,,,-99.99,0.000000,,2013-03-15 10:32:00,
2013-03-15 03:42:00,52.0,45.0,30.04,SSW,203,2.0,6.0,77,-99.99,,,-99.99,0.000000,,2013-03-15 10:42:00,
2013-03-15 03:51:00,52.0,45.0,30.04,SSW,203,2.0,6.0,77,-99.99,,,-99.99,0.000000,,2013-03-15 10:51:00,
2013-03-15 04:22:00,51.0,46.0,30.04,NE,46,0.0,3.0,82,-99.99,,,-99.99,0.000000,,2013-03-15 11:22:00,
2013-03-15 04:32:00,51.0,46.0,30.04,NE,46,0.0,3.0,82,-99.99,,,-99.99,0.000000,,2013-03-15 11:32:00,
2013-03-15 04:42:00,51.0,46.0,30.04,NE,46,0.0,3.0,82,-99.99,,,-99.99,0.000000,,2013-03-15 11:42:00,
2013-03-15 04:52:00,51.0,46.0,30.04,NE,46,0.0,3.0,82,-99.99,,,-99.99,0.000000,,2013-03-15 11:52:00,
2013-03-15 05:12:00,51.0,45.0,30.04,SSW,195,1.0,2.0,81,-99.99,,,-99.99,0.000000,,2013-03-15 12:12:00,
2013-03-15 05:22:00,51.0,45.0,30.04,SSW,195,1.0,2.0,81,-99.99,,,-99.99,0.000000,,2013-03-15 12:22:00,
2013-03-15 05:32:00,51.0,45.0,30.04,SSW,195,1.0,2.0,81,-99.99,,,-99.99,0.000000,,2013-03-15 12:32:00,
2013-03-15 05:42:00,51.0,45.0,30.04,SSW,195,1.0,2.0,81,-99.99,,,-99.99,0.000000,,2013-03-15 12:42:00,
2013-03-15 05:51:00,51.0,45.0,30.04,SSW,195,1.0,2.0,81,-99.99,,,-99.99,0.000000,,2013-03-15 12:51:00,
2013-03-15 06:12:00,51.0,45.0,30.03,SSE,159,1.0,3.0,81,-99.99,,,-99.99,0.000000,,2013-03-15 13:12:00,
2013-03-15 06:22:00,51.0,45.0,30.03,SSE,159,1.0,3.0,81,-99.99,,,-99.99,0.000000,,2013-03-15 13:22:00,
2013-03-15 06:32:00,51.0,45.0,30.03,SSE,159,1.0,3.0,81,-99.99,,,-99.99,0.000000,,2013-03-15 13:32:00,
2013-03-15 06:42:00,51.0,45.0,30.03,SSE,159,1.0,3.0,81,-99.99,,,-99.99,0.000000,,2013-03-15 13:42:00,
2013-03-15 06:52:00,51.0,45.0,30.03,SSE,159,1.0,3.0,81,-99.99,,,-99.99,0.000000,,2013-03-15 13:52:00,
2013-03-15 07:12:00,51.0,45.0,30.04,WNW,301,2.0,3.0,81,-99.99,,,-99.99,0.000000,,2013-03-15 14:12:00,
2013-03-15 07:22:00,51.0,45.0,30.04,WNW,301,2.0,3.0,81,-99.99,,,-99.99,0.000000,,2013-03-15 14:22:00,
2013-03-15 07:32:00,51.0,45.0,30.04,WNW,301,2.0,3.0,81,-99.99,,,-99.99,0.000000,,2013-03-15 14:32:00,
2013-03-15 07:42:00,51.0,45.0,30.04,WNW,301,2.0,3.0,81,-99.99,,,-99.99,0.000000,,2013-03-15 14:42:00,
2013-03-15 07:51:00,51.0,45.0,30.04,WNW,301,2.0,3.0,81,-99.99,,,-99.99,0.000000,,2013-03-15 14:51:00,
2013-03-15 08:12:00,52.0,46.0,30.04,WNW,299,3.0,5.0,79,-99.99,,,-99.99,10.000000,,2013-03-15 15:12:00,
2013-03-15 08:22:00,52.0,46.0,30.04,WNW,299,3.0,5.0,79,-99.99,,,-99.99,10.000000,,2013-03-15 15:22:00,
2013-03-15 08:33:00,52.0,46.0,30.04,WNW,299,3.0,5.0,79,-99.99,,,-99.99,10.000000,,2013-03-15 15:33:00,
2013-03-15 08:42:00,52.0,46.0,30.04,WNW,299,3.0,5.0,79,-99.99,,,-99.99,10.000000,,2013-03-15 15:42:00,
2013-03-15 08:52:00,52.0,46.0,30.04,WNW,299,3.0,5.0,79,-99.99,,,-99.99,10.000000,,2013-03-15 15:52:00,
2013-03-15 09:22:00,54.0,48.0,30.05,West,260,1.0,5.0,80,-99.99,,,-99.99,70.000000,,2013-03-15 16:22:00,
2013-03-15 09:32:00,54.0,48.0,30.05,West,260,1.0,5.0,80,-99.99,,,-99.99,70.000000,,2013-03-15 16:32:00,
2013-03-15 09:42:00,54.0,48.0,30.05,West,260,1.0,5.0,80,-99.99,,,-99.99,70.000000,,2013-03-15 16:42:00,
2013-03-15 09:52:00,54.0,48.0,30.05,West,260,1.0,5.0,80,-99.99,,,-99.99,70.000000,,2013-03-15 16:52:00,
2013-03-15 10:22:00,62.0,50.0,30.05,NE,41,2.0,3.0,65,-99.99,,,-99.99,209.000000,,2013-03-15 17:22:00,
2013-03-15 10:32:00,62.0,50.0,30.05,NE,41,2.0,3.0,65,-99.99,,,-99.99,209.000000,,2013-03-15 17:32:00,
2013-03-15 10:42:00,62.0,50.0,30.05,NE,41,2.0,3.0,65,-99.99,,,-99.99,209.000000,,2013-03-15 17:42:00,
2013-03-15 10:52:00,62.0,50.0,30.05,NE,41,2.0,3.0,65,-99.99,,,-99.99,209.000000,,2013-03-15 17:52:00,
2013-03-15 11:12:00,63.0,49.0,30.06,North,353,4.0,8.0,60,-99.99,,,-99.99,369.000000,,2013-03-15 18:12:00,
2013-03-15 11:22:00,63.0,49.0,30.06,North,353,4.0,8.0,60,-99.99,,,-99.99,369.000000,,2013-03-15 18:22:00,
2013-03-15 11:32:00,63.0,49.0,30.06,North,353,4.0,8.0,60,-99.99,,,-99.99,369.000000,,2013-03-15 18:32:00,
2013-03-15 11:42:00,63.0,49.0,30.06,North,353,4.0,8.0,60,-99.99,,,-99.99,369.000000,,2013-03-15 18:42:00,
2013-03-15 11:52:00,63.0,49.0,30.06,North,353,4.0,8.0,60,-99.99,,,-99.99,369.000000,,2013-03-15 18:52:00,
2013-03-15 12:22:00,68.0,49.0,30.05,NNE,17,4.0,12.0,51,-99.99,,,-99.99,576.000000,,2013-03-15 19:22:00,
2013-03-15 12:32:00,68.0,49.0,30.05,NNE,17,4.0,12.0,51,-99.99,,,-99.99,576.000000,,2013-03-15 19:32:00,
2013-03-15 12:42:00,68.0,49.0,30.05,NNE,17,4.0,12.0,51,-99.99,,,-99.99,576.000000,,2013-03-15 19:42:00,
2013-03-15 12:52:00,68.0,49.0,30.05,NNE,17,4.0,12.0,51,-99.99,,,-99.99,576.000000,,2013-03-15 19:52:00,
2013-03-15 13:12:00,71.0,49.0,30.04,North,349,4.0,12.0,46,-99.99,,,-99.99,574.000000,,2013-03-15 20:12:00,
2013-03-15 13:22:00,71.0,49.0,30.04,North,349,4.0,12.0,46,-99.99,,,-99.99,574.000000,,2013-03-15 20:22:00,
2013-03-15 13:31:00,71.0,49.0,30.04,North,349,4.0,12.0,46,-99.99,,,-99.99,574.000000,,2013-03-15 20:31:00,
2013-03-15 13:42:00,71.0,49.0,30.04,North,349,4.0,12.0,46,-99.99,,,-99.99,574.000000,,2013-03-15 20:42:00,
2013-03-15 13:51:00,71.0,49.0,30.04,North,349,4.0,12.0,46,-99.99,,,-99.99,574.000000,,2013-03-15 20:51:00,
2013-03-15 14:22:00,73.0,50.0,30.01,NW,310,5.0,9.0,44,-99.99,,,-99.99,630.000000,,2013-03-15 21:22:00,
2013-03-15 14:32:00,73.0,50.0,30.01,NW,310,5.0,9.0,44,-99.99,,,-99.99,630.000000,,2013-03-15 21:32:00,
2013-03-15 14:42:00,73.0,50.0,30.01,NW,310,5.0,9.0,44,-99.99,,,-99.99,630.000000,,2013-03-15 21:42:00,
2013-03-15 14:52:00,73.0,50.0,30.01,NW,310,5.0,9.0,44,-99.99,,,-99.99,630.000000,,2013-03-15 21:52:00,
2013-03-15 15:22:00,75.0,48.0,29.99,WNW,302,5.0,10.0,39,-99.99,,,-99.99,625.000000,,2013-03-15 22:22:00,
2013-03-15 15:32:00,75.0,48.0,29.99,WNW,302,5.0,10.0,39,-99.99,,,-99.99,625.000000,,2013-03-15 22:32:00,
2013-03-15 15:42:00,75.0,48.0,29.99,WNW,302,5.0,10.0,39,-99.99,,,-99.99,625.000000,,2013-03-15 22:42:00,
2013-03-15 15:52:00,75.0,48.0,29.99,WNW,302,5.0,10.0,39,-99.99,,,-99.99,625.000000,,2013-03-15 22:52:00,
2013-03-15 16:22:00,77.0,44.0,29.98,North,356,5.0,11.0,31,-99.99,,,-99.99,541.000000,,2013-03-15 23:22:00,
2013-03-15 16:32:00,77.0,44.0,29.98,North,356,5.0,11.0,31,-99.99,,,-99.99,541.000000,,2013-03-15 23:32:00,
2013-03-15 16:42:00,77.0,44.0,29.98,North,356,5.0,11.0,31,-99.99,,,-99.99,541.000000,,2013-03-15 23:42:00,
2013-03-15 16:52:00,77.0,44.0,29.98,North,356,5.0,11.0,31,-99.99,,,-99.99,541.000000,,2013-03-15 23:52:00,
2013-03-15 17:12:00,78.0,44.0,29.97,North,354,4.0,10.0,30,-99.99,,,-99.99,406.000000,,2013-03-16 00:12:00,
2013-03-15 17:22:00,78.0,44.0,29.97,North,354,4.0,10.0,30,-99.99,,,-99.99,406.000000,,2013-03-16 00:22:00,
2013-03-15 17:32:00,78.0,44.0,29.97,North,354,4.0,10.0,30,-99.99,,,-99.99,406.000000,,2013-03-16 00:32:00,
2013-03-15 17:42:00,78.0,44.0,29.97,North,354,4.0,10.0,30,-99.99,,,-99.99,406.000000,,2013-03-16 00:42:00,
2013-03-15 17:52:00,78.0,44.0,29.97,North,354,4.0,10.0,30,-99.99,,,-99.99,406.000000,,2013-03-16 00:52:00,
2013-03-15 18:12:00,78.0,43.0,29.96,WNW,289,2.0,5.0,29,-99.99,,,-99.99,219.000000,,2013-03-16 01:12:00,
2013-03-15 18:21:00,78.0,43.0,29.96,WNW,289,2.0,5.0,29,-99.99,,,-99.99,219.000000,,2013-03-16 01:21:00,
2013-03-15 18:32:00,78.0,43.0,29.96,WNW,289,2.0,5.0,29,-99.99,,,-99.99,219.000000,,2013-03-16 01:32:00,
2013-03-15 18:42:00,78.0,43.0,29.96,WNW,289,2.0,5.0,29,-99.99,,,-99.99,219.000000,,2013-03-16 01:42:00,
2013-03-15 18:52:00,78.0,43.0,29.96,WNW,289,2.0,5.0,29,-99.99,,,-99.99,219.000000,,2013-03-16 01:52:00,
2013-03-15 19:12:00,72.0,51.0,29.95,SW,230,4.0,11.0,48,-99.99,,,-99.99,67.000000,,2013-03-16 02:12:00,
2013-03-15 19:22:00,72.0,51.0,29.95,SW,230,4.0,11.0,48,-99.99,,,-99.99,67.000000,,2013-03-16 02:22:00,
2013-03-15 19:32:00,72.0,51.0,29.95,SW,230,4.0,11.0,48,-99.99,,,-99.99,67.000000,,2013-03-16 02:32:00,
2013-03-15 19:42:00,72.0,51.0,29.95,SW,230,4.0,11.0,48,-99.99,,,-99.99,67.000000,,2013-03-16 02:42:00,
2013-03-15 19:51:00,72.0,51.0,29.95,SW,230,4.0,11.0,48,-99.99,,,-99.99,67.000000,,2013-03-16 02:51:00,
2013-03-15 20:12:00,67.0,50.0,29.96,WSW,249,5.0,10.0,55,-99.99,,,-99.99,5.000000,,2013-03-16 03:12:00,
2013-03-15 20:22:00,67.0,50.0,29.96,WSW,249,5.0,10.0,55,-99.99,,,-99.99,5.000000,,2013-03-16 03:22:00,
2013-03-15 20:32:00,67.0,50.0,29.96,WSW,249,5.0,10.0,55,-99.99,,,-99.99,5.000000,,2013-03-16 03:32:00,
2013-03-15 20:42:00,67.0,50.0,29.96,WSW,249,5.0,10.0,55,-99.99,,,-99.99,5.000000,,2013-03-16 03:42:00,
2013-03-15 20:52:00,67.0,50.0,29.96,WSW,249,5.0,10.0,55,-99.99,,,-99.99,5.000000,,2013-03-16 03:52:00,
2013-03-15 21:12:00,64.0,51.0,29.96,WSW,238,3.0,7.0,62,-99.99,,,-99.99,0.000000,,2013-03-16 04:12:00,
2013-03-15 21:22:00,64.0,51.0,29.96,WSW,238,3.0,7.0,62,-99.99,,,-99.99,0.000000,,2013-03-16 04:22:00,
2013-03-15 21:32:00,64.0,51.0,29.96,WSW,238,3.0,7.0,62,-99.99,,,-99.99,0.000000,,2013-03-16 04:32:00,
2013-03-15 21:42:00,64.0,51.0,29.96,WSW,238,3.0,7.0,62,-99.99,,,-99.99,0.000000,,2013-03-16 04:42:00,
2013-03-15 21:52:00,64.0,51.0,29.96,WSW,238,3.0,7.0,62,-99.99,,,-99.99,0.000000,,2013-03-16 04:52:00,
2013-03-15 22:12:00,61.0,50.0,29.96,WSW,245,3.0,5.0,68,-99.99,,,-99.99,0.000000,,2013-03-16 05:12:00,
2013-03-15 22:21:00,61.0,50.0,29.96,WSW,245,3.0,5.0,68,-99.99,,,-99.99,0.000000,,2013-03-16 05:21:00,
2013-03-15 22:32:00,61.0,50.0,29.96,WSW,245,3.0,5.0,68,-99.99,,,-99.99,0.000000,,2013-03-16 05:32:00,
2013-03-15 22:42:00,61.0,50.0,29.96,WSW,245,3.0,5.0,68,-99.99,,,-99.99,0.000000,,2013-03-16 05:42:00,
2013-03-15 22:51:00,61.0,50.0,29.96,WSW,245,3.0,5.0,68,-99.99,,,-99.99,0.000000,,2013-03-16 05:51:00,
2013-03-15 23:22:00,59.0,51.0,29.97,West,274,2.0,5.0,74,-99.99,,,-99.99,0.000000,,2013-03-16 06:22:00,
2013-03-15 23:32:00,59.0,51.0,29.97,West,274,2.0,5.0,74,-99.99,,,-99.99,0.000000,,2013-03-16 06:32:00,
2013-03-15 23:42:00,59.0,51.0,29.97,West,274,2.0,5.0,74,-99.99,,,-99.99,0.000000,,2013-03-16 06:42:00,
2013-03-15 23:51:00,59.0,51.0,29.97,West,274,2.0,5.0,74,-99.99,,,-99.99,0.000000,,2013-03-16 06:51:00,